Terug naar catalogus

STARLINK-35832

ActiefCommunicatieVLEO
NORAD 66495·PAYLOAD·🇺🇸 United States

Gelanceerd Nov 15, 2025 vanaf Cape Canaveral Space Force Station

Loading…

Volgende Passages (komende 24 uur)

TLE

VersSource: CelesTrak SupGP

Epoch: Sep 14, 2026, 14:23 UTC

1 66495C 25263L   26257.59979167 -.00018904  00000+0 -68500-3 0  2575
2 66495  43.0038   3.7406 0001398 273.9589   3.9075 15.27573871    15

Volg STARLINK-35832 in realtime met AllMySat

Download on the App Store